Powrót do katalogu

FENGYUN 1C DEB

AktywnyPO
NORAD 31680·DEBRIS·🇨🇳 China

Wystrzelony May 10, 1999 z Taiyuan Satellite Launch Center

Loading…

Następne Przeloty (najbliższe 24 godziny)

TLE

Starzejące sięSource: Space-Track

Epoka: Sep 7, 2026, 19:27 UTC

1 31680U 99025CCN 26250.81049455  .00053672  00000-0  97955-3 0  9995
2 31680  99.8444  93.5009 0044864 110.5546 250.0518 15.48121021 43038

Śledź FENGYUN 1C DEB w czasie rzeczywistym z AllMySat

Download on the App Store